[[{"header":{"parameterUnit":"m.s-1","parameterCategory":1,"la1":30.2991,"la2":30.254,"lo1":-89.0895,"lo2":-89.0444,"dy":0.0017,"dx":0.0017,"nx":28,"ny":28,"refTime":"2025-04-28T09:00:00:Z","depth":0,"parameterNumber":2,"parameterNumberName":"U-component_of_WINDS"},"data":[0,0,0,0,0,0,0,0,0,0,0,0,0,0,0,0,0,0,0,0,0,0,0,0,0,0,0,0,0,0,0,0,0,0,0,0,0,0,0,0,0,0,0,0,0,0,0,0,0,0,0,0,0,0,0,0,0,0,-1.2056,-1.2057,0,-1.2186,-1.2188,-1.2189,-1.2237,-1.2237,-1.2236,-1.2236,-1.2371,-1.2375,-1.2379,0,0,0,0,0,0,0,0,0,0,0,0,0,-1.1852,-1.1855,-1.2056,-1.2058,-1.2059,-1.2186,-1.2188,-1.219,-1.2237,-1.2237,-1.2236,-1.2236,-1.237,-1.2375,-1.238,0,0,0,0,0,0,0,0,0,0,0,0,0,-1.1957,-1.1856,-1.2056,-1.2098,-1.2103,-1.2186,-1.2188,-1.219,-1.2237,-1.2237,-1.2236,-1.2236,-1.2368,-1.2374,-1.238,-1.243,0,0,-1.2399,-1.2401,0,0,0,0,0,0,0,0,-1.1951,-1.1965,-1.209,-1.2096,-1.2101,-1.2195,-1.2166,-1.2271,-1.2238,-1.2187,-1.2236,-1.2235,-1.2313,-1.2324,-1.235,-1.2437,-1.2442,-1.2399,-1.2403,-1.2405,-1.2407,0,0,0,0,0,0,0,-1.1944,-1.1959,-1.2108,-1.2092,-1.2099,-1.2112,-1.2126,-1.2186,-1.2252,-1.2191,-1.2195,-1.2209,-1.2316,-1.2344,-1.2353,-1.2444,-1.2399,-1.2404,-1.2408,-1.241,-1.2581,-1.2581,0,0,0,0,0,0,-1.1929,-1.1953,-1.2103,-1.2111,-1.2023,-1.2116,-1.2132,-1.2166,-1.2252,-1.2264,-1.221,-1.2211,-1.2334,-1.2346,-1.2358,-1.2423,-1.2405,-1.2411,-1.2414,-1.258,-1.2581,-1.2582,0,0,0,0,0,0,-1.1924,-1.1942,-1.2098,-1.2033,-1.2054,-1.212,-1.2158,-1.2168,-1.2196,-1.2266,-1.2278,-1.2226,-1.2334,-1.235,-1.2412,-1.2428,-1.2414,-1.2419,-1.2579,-1.258,-1.2581,-1.2553,0,0,0,0,0,0,-1.1918,-1.194,-1.1959,-1.2033,-1.2057,-1.2149,-1.2159,-1.2171,-1.2206,-1.2209,-1.2284,-1.2296,-1.2335,-1.2403,-1.2418,-1.2436,-1.2424,-1.2577,-1.2579,-1.2581,-1.2552,-1.2553,-1.2553,0,0,0,0,0,-1.1911,-1.1946,-1.1959,-1.1977,-1.2082,-1.215,-1.2164,-1.2207,-1.2207,-1.2227,-1.2272,-1.2293,-1.2424,-1.2409,-1.2426,-1.2447,-1.2577,-1.2579,-1.2581,-1.2552,-1.2553,-1.2553,0,0,0,0,0,0,-1.1872,-1.1956,-1.1972,-1.2032,-1.2083,-1.2158,-1.2184,-1.2206,-1.2259,-1.2259,-1.2312,-1.2328,-1.2387,-1.2423,-1.2405,-1.2501,-1.2502,-1.2508,-1.2474,-1.2475,-1.2476,-1.2466,-1.2429,0,0,0,0,0,-1.187,-1.1917,-1.1989,-1.2034,-1.2059,-1.2117,-1.2148,-1.2177,-1.2233,-1.2255,-1.2305,-1.2358,-1.2412,-1.2446,-1.2499,-1.2558,-1.2576,-1.2581,-1.2582,-1.2582,-1.2586,-1.2621,-1.2625,-1.2589,-1.2589,-1.2589,0,0,-1.1867,-1.1919,-1.1945,-1.2028,-1.2071,-1.2119,-1.2135,-1.2185,-1.2222,-1.2263,-1.2325,-1.2363,-1.2427,-1.2488,-1.2518,-1.252,-1.26,-1.2584,-1.2584,-1.2588,-1.2624,-1.2627,-1.263,-1.259,-1.259,-1.259,0,0,-1.1886,-1.193,-1.1973,-1.2016,-1.2081,-1.212,-1.213,-1.2202,-1.2229,-1.2292,-1.2323,-1.2369,-1.2459,-1.2503,-1.2538,-1.2575,-1.2597,-1.2591,-1.2593,-1.2627,-1.263,-1.2633,-1.2647,-1.2651,-1.2595,-1.2595,-1.2595,0,-1.1874,-1.1947,-1.1993,-1.2042,-1.2078,-1.2117,-1.2162,-1.2202,-1.2281,-1.2305,-1.2307,-1.2422,-1.2468,-1.2541,-1.255,-1.2576,-1.2591,-1.2583,-1.2626,-1.2629,-1.2632,-1.2646,-1.2651,-1.2594,-1.2594,-1.2595,-1.2595,0,-1.193,-1.198,-1.2008,-1.2083,-1.2122,-1.2169,-1.2223,-1.2257,-1.2283,-1.2322,-1.2386,-1.2443,-1.2508,-1.2528,-1.2554,-1.2605,-1.2605,-1.2615,-1.2618,-1.2634,-1.2648,-1.2654,-1.2593,-1.2593,-1.2593,-1.2594,0,0,-1.1927,-1.2027,-1.2036,-1.2072,-1.2147,-1.2187,-1.2237,-1.23,-1.2329,-1.2383,-1.2426,-1.2503,-1.2514,-1.2553,-1.2585,-1.2614,-1.2641,-1.2622,-1.2624,-1.2624,-1.2702,-1.2693,-1.2698,-1.2657,-1.2658,-1.2659,-1.2697,0,-1.1956,-1.2044,-1.2087,-1.2158,-1.2206,-1.2244,-1.2287,-1.2339,-1.2377,-1.2424,-1.2467,-1.252,-1.253,-1.2554,-1.2585,-1.2631,-1.2658,-1.2629,-1.2698,-1.27,-1.268,-1.2706,-1.2696,-1.2729,-1.2703,-1.2704,-1.2704,0,-1.2001,-1.2054,-1.2129,-1.22,-1.2222,-1.2259,-1.2322,-1.2366,-1.2426,-1.2452,-1.2496,-1.2527,-1.2582,-1.2581,-1.2657,-1.2637,-1.2668,-1.2695,-1.2698,-1.2705,-1.2703,-1.2714,-1.2741,-1.2746,-1.2713,-1.2712,-1.2712,0,-1.1992,-1.2082,-1.2139,-1.2168,-1.2252,-1.2277,-1.2314,-1.2373,-1.2409,-1.2464,-1.2488,-1.2549,-1.2582,-1.263,-1.2677,-1.2672,-1.2749,-1.2752,-1.2773,-1.2772,-1.2787,-1.2785,-1.2819,-1.2807,-1.2807,-1.2807,-1.2807,0,-1.2019,-1.2064,-1.2136,-1.217,-1.2222,-1.2272,-1.2322,-1.2361,-1.2414,-1.2458,-1.2496,-1.2536,-1.2596,-1.2645,-1.2683,-1.2741,-1.2756,-1.2779,-1.2788,-1.2776,-1.2773,-1.2796,-1.2795,-1.2808,-1.2808,-1.2808,-1.2807,0,-1.2017,-1.2067,-1.2131,-1.2206,-1.2226,-1.226,-1.2324,-1.2361,-1.2401,-1.2456,-1.2472,-1.2536,-1.2595,-1.2647,-1.2726,-1.2752,-1.2811,-1.2823,-1.2791,-1.2796,-1.2814,-1.2811,-1.2864,-1.2873,-1.2855,-1.2855,-1.2855,0,-1.2031,-1.2066,-1.2144,-1.2176,-1.2212,-1.2263,-1.23,-1.2351,-1.2388,-1.246,-1.2487,-1.255,-1.2602,-1.2696,-1.2749,-1.281,-1.2824,-1.2838,-1.2833,-1.2819,-1.2824,-1.2822,-1.2826,-1.2838,-1.2838,-1.2838,-1.2838,0,-1.2051,-1.2074,-1.2126,-1.2186,-1.2229,-1.2279,-1.2331,-1.2355,-1.2416,-1.2456,-1.2517,-1.2558,-1.2639,-1.27,-1.2767,-1.2806,-1.2832,-1.2839,-1.2847,-1.2834,-1.2814,-1.2825,-1.2791,-1.2837,-1.2837,-1.2837,-1.2837,-1.2837,-1.2058,-1.2091,-1.2151,-1.2208,-1.2252,-1.2299,-1.2337,-1.2382,-1.2434,-1.2503,-1.253,-1.2593,-1.2654,-1.2746,-1.2785,-1.2836,-1.284,-1.2852,-1.2855,-1.2857,-1.2855,-1.2806,-1.2848,-1.2848,-1.2849,-1.2849,-1.2849,0,-1.208,-1.2121,-1.2172,-1.2243,-1.2288,-1.2308,-1.2367,-1.2403,-1.2457,-1.2511,-1.2562,-1.2633,-1.2693,-1.2752,-1.2816,-1.2845,-1.2859,-1.286,-1.2859,-1.2867,-1.2847,-1.2834,-1.2848,-1.2848,-1.2848,-1.2848,-1.2848,-1.2848,-1.2097,-1.2154,-1.2185,-1.2265,-1.2307,-1.2367,-1.2399,-1.2444,-1.2487,-1.2564,-1.2614,-1.2652,-1.2709,-1.2778,-1.2834,-1.285,-1.2872,-1.287,-1.2889,-1.2869,-1.2869,-1.2868,-1.2856,-1.2874,-1.2874,-1.2906,-1.2906,-1.2906]},{"header":{"parameterUnit":"m.s-1","parameterCategory":1,"la1":30.2991,"la2":30.254,"lo1":-89.0895,"lo2":-89.0444,"dy":0.0017,"dx":0.0017,"nx":28,"ny":28,"refTime":"2025-04-28T09:00:00:Z","depth":0,"parameterNumber":3,"parameterNumberName":"V-component_of_WINDS"},"data":[0,0,0,0,0,0,0,0,0,0,0,0,0,0,0,0,0,0,0,0,0,0,0,0,0,0,0,0,0,0,0,0,0,0,0,0,0,0,0,0,0,0,0,0,0,0,0,0,0,0,0,0,0,0,0,0,0,0,1.7572,1.7572,0,1.7584,1.7584,1.7585,1.7553,1.7552,1.7551,1.7551,1.7562,1.7563,1.7564,0,0,0,0,0,0,0,0,0,0,0,0,0,1.7519,1.752,1.7572,1.7572,1.7572,1.7584,1.7584,1.7585,1.7554,1.7552,1.7551,1.755,1.7561,1.7563,1.7564,0,0,0,0,0,0,0,0,0,0,0,0,0,1.7538,1.7521,1.7572,1.7558,1.7557,1.7584,1.7584,1.7585,1.7554,1.7552,1.7551,1.755,1.7561,1.7563,1.7564,1.7605,0,0,1.757,1.7571,0,0,0,0,0,0,0,0,1.7537,1.754,1.756,1.7559,1.7558,1.7566,1.757,1.7591,1.7554,1.7555,1.7551,1.7549,1.7564,1.7566,1.7571,1.7605,1.7606,1.757,1.7571,1.7572,1.7572,0,0,0,0,0,0,0,1.7536,1.7539,1.7577,1.756,1.7559,1.7551,1.7552,1.7574,1.7568,1.7555,1.7553,1.7555,1.7563,1.7569,1.7571,1.7606,1.757,1.7572,1.7573,1.7573,1.7674,1.7675,0,0,0,0,0,0,1.7536,1.7538,1.7576,1.7577,1.7544,1.7553,1.7554,1.7565,1.7567,1.7566,1.7556,1.7553,1.7567,1.7569,1.7571,1.7619,1.7572,1.7574,1.7575,1.7672,1.7674,1.7676,0,0,0,0,0,0,1.7535,1.754,1.7576,1.7557,1.7561,1.7555,1.7568,1.7566,1.7572,1.7568,1.7567,1.7563,1.7566,1.7569,1.7597,1.7619,1.7574,1.7576,1.767,1.7673,1.7675,1.7714,0,0,0,0,0,0,1.7534,1.754,1.7556,1.7558,1.7562,1.7602,1.7569,1.7567,1.7575,1.7572,1.7575,1.7574,1.7565,1.7594,1.7599,1.762,1.7578,1.7668,1.7671,1.7674,1.7711,1.7718,1.7723,0,0,0,0,0,1.7532,1.7566,1.7557,1.7561,1.7582,1.7603,1.7605,1.7595,1.7577,1.7593,1.759,1.7574,1.7616,1.7597,1.7602,1.7625,1.7667,1.7671,1.7674,1.7708,1.7716,1.7723,0,0,0,0,0,0,1.7566,1.7566,1.7556,1.7591,1.7597,1.7598,1.7617,1.7604,1.7615,1.7612,1.7598,1.7599,1.7629,1.763,1.7609,1.7664,1.7638,1.7643,1.7662,1.767,1.7676,1.7676,1.7579,0,0,0,0,0,1.7578,1.7596,1.7594,1.7626,1.7629,1.7623,1.7632,1.7623,1.7629,1.7631,1.7631,1.7636,1.7651,1.766,1.7673,1.7711,1.7711,1.7729,1.7735,1.774,1.7744,1.7764,1.7771,1.7687,1.7687,1.7687,0,0,1.7602,1.7604,1.7616,1.7632,1.7636,1.7654,1.7625,1.7646,1.7659,1.7634,1.7661,1.766,1.7666,1.7699,1.7713,1.77,1.7767,1.7744,1.7749,1.775,1.7768,1.7776,1.7783,1.769,1.7689,1.7689,0,0,1.7655,1.7659,1.7685,1.769,1.7696,1.7692,1.7698,1.77,1.7699,1.7726,1.7708,1.7723,1.7748,1.7752,1.7758,1.7813,1.7798,1.7818,1.785,1.7869,1.7876,1.7882,1.7901,1.7908,1.7822,1.7822,1.7822,0,1.7684,1.7712,1.77,1.7722,1.773,1.7709,1.7735,1.774,1.775,1.7755,1.7741,1.7772,1.7774,1.7808,1.7821,1.7826,1.7833,1.7817,1.7876,1.7882,1.7887,1.7905,1.7913,1.7824,1.7824,1.7824,1.7823,0,1.7747,1.7766,1.7786,1.7797,1.7807,1.7831,1.7823,1.7834,1.7825,1.7822,1.7849,1.7851,1.7864,1.7871,1.7862,1.7903,1.7895,1.7878,1.7852,1.7897,1.7914,1.7921,1.7827,1.7827,1.7826,1.7825,0,0,1.7822,1.7826,1.7834,1.7839,1.7844,1.7858,1.7881,1.7894,1.7904,1.7912,1.793,1.7952,1.7937,1.7943,1.7934,1.7951,1.7994,1.7933,1.7932,1.7944,1.804,1.8052,1.8061,1.7985,1.7986,1.7987,1.8039,0,1.7875,1.7915,1.7905,1.7944,1.7961,1.7942,1.7961,1.7966,1.7964,1.7978,1.7975,1.799,1.7969,1.7973,1.7989,1.7986,1.8014,1.7982,1.8001,1.8002,1.8001,1.807,1.8083,1.8132,1.8046,1.8047,1.8048,0,1.7942,1.7952,1.7993,1.7996,1.8003,1.8021,1.8032,1.8046,1.8051,1.8048,1.8055,1.8043,1.8065,1.8038,1.8068,1.8047,1.8054,1.8054,1.8056,1.8057,1.8028,1.8073,1.8148,1.8155,1.8058,1.8058,1.8057,0,1.7992,1.8017,1.8045,1.8049,1.8053,1.8066,1.8068,1.8071,1.808,1.809,1.8095,1.8107,1.8113,1.8122,1.8114,1.8095,1.8145,1.8118,1.8142,1.8143,1.8154,1.8153,1.8231,1.8159,1.8159,1.8158,1.8158,0,1.8052,1.8078,1.8067,1.8085,1.8113,1.8101,1.8129,1.8129,1.8132,1.8148,1.8132,1.8147,1.8134,1.8149,1.8142,1.8167,1.817,1.8168,1.8166,1.817,1.817,1.8174,1.8171,1.816,1.816,1.816,1.8159,0,1.8114,1.8108,1.8137,1.8138,1.8138,1.8159,1.816,1.8175,1.8171,1.8192,1.8196,1.819,1.8206,1.8198,1.8214,1.821,1.8243,1.8236,1.8241,1.824,1.8265,1.8263,1.8348,1.8359,1.828,1.828,1.8281,0,1.8152,1.8172,1.8175,1.8185,1.8188,1.8205,1.8213,1.8202,1.8212,1.8219,1.8234,1.8248,1.8259,1.8285,1.8282,1.8294,1.8288,1.8317,1.8289,1.8293,1.8288,1.8287,1.8289,1.8322,1.8323,1.8324,1.8325,0,1.8222,1.8218,1.8231,1.8244,1.8255,1.8264,1.8271,1.828,1.827,1.8281,1.8297,1.8306,1.8323,1.8337,1.8348,1.8349,1.8335,1.8333,1.834,1.8344,1.8346,1.8345,1.8256,1.8331,1.8331,1.833,1.833,1.833,1.8273,1.8289,1.8294,1.831,1.8314,1.8322,1.8337,1.8335,1.8348,1.8361,1.8354,1.8373,1.8377,1.839,1.8393,1.8408,1.8396,1.8405,1.8407,1.841,1.8413,1.8344,1.8409,1.8409,1.8409,1.8409,1.8409,0,1.8342,1.8344,1.8358,1.837,1.8382,1.8368,1.8375,1.8386,1.8403,1.8409,1.842,1.8438,1.8452,1.845,1.8463,1.8475,1.8468,1.8478,1.8477,1.8478,1.8423,1.8416,1.8483,1.8483,1.8483,1.8483,1.8483,1.8483,1.8379,1.8406,1.8402,1.8431,1.8433,1.8452,1.8457,1.8464,1.8468,1.849,1.8501,1.85,1.8502,1.8515,1.8527,1.8526,1.8531,1.8543,1.854,1.8489,1.8482,1.8475,1.8468,1.8544,1.8545,1.8593,1.8594,1.8594]}]]